Terug naar catalogus

SL-14 DEB

ActiefPO
NORAD 26010·DEBRIS·🇷🇺 Russia

Gelanceerd Sep 28, 1991 vanaf Plesetsk Cosmodrome

Loading…

Volgende Passages (komende 24 uur)

TLE

VersSource: Space-Track

Epoch: Sep 14, 2026, 00:28 UTC

1 26010U 91068V   26257.02008716  .00000054  00000-0  31223-3 0  9992
2 26010  82.7296 274.7244 0050366 319.0151  67.8382 12.44761717214961

Volg SL-14 DEB in realtime met AllMySat

Download on the App Store